Location: Stoke Bliss
(52.2667°N, 2.5167°W)
Time: 12:36:07
(UTC+00:00)

Meteor 2-20 - Pass Details

Date: 03 March 2021
Orbit: 940 x 958 km, 82.5° (Epoch: 13 April)

Event Time Altitude Azimuth Distance (km) Brightness Sun altitude
Rises 20:27:00 0° 348° (NNW) 3,623 7.9 -23.9°
Reaches altitude 10° 20:29:30 10° 348° (NNW) 2,677 7.2 -24.3°
Maximum altitude 20:35:38 84° 262° (W) 960 4.4 -25.1°
Enters shadow 20:38:16 37° 177° (S) 1,442 5.1 -25.5°
